SCP
0 0 0 0 0 0 0 0 0 0 0 0 0 0 0 0 0 0 0 0 0 0 0 0 0 0 0 0 0 0 0 0 0 0 0 0 0 0 0 0 0 0 0
0 0 0 0 0 0 0 0 0 0 0 0 0 0 0 0 0 0 0 0 0 0 0 0 0 0 0 0 0 0 0 0 0 0 0 0 0 0 0 0 0 0 0
0 0 0 0 0 0 0 0 0 0 0 0 0 0 0 0 0 0 0 0 0 0 0 0 0 0 0 0 0 0 0 0 0 0 0 0 0 0 0 0 0 0 0
0 0 0 0 0 0 0 0 0 0 0 0 0 0 0 0 0 0 0 0 0 0 0 0 0 0 0 0 0 0 0 0 0 0 0 0 0 0 0 0 0 0 0
0 0 0 0 0 0 0 0 0 0 0 0 0 0 0 0 0 0 0 0 0 0 0 0 0 0 0 0 0 0 0 0 0 0 0 0 0 0 0 0 0 0 0
0 0 0 0 0 0 0 0 0 0 0 0 0 0 0 0 0 0 0 0 0 0 0 0 0 0 0 0 0 0 0 0 0 0 0 0 0 0 0 0 0 0 0
0 0 0 0 0 0 0 0 0 0 0 0 0 0 0 0 0 0 0 0 0 0 0 0 0 0 0 0 0 0 0 0 0 0 0 0 0 0 0 0 0 0 0
0 0 0 0 0 0 0 0 0 0 0 0 0 0 0 0 0 0 0 0 0 0 0 0 0 0 0 0 0 0 0 0 0 0 0 0 0 0 0 0 0 0 0
0 0 0 0 0 0 0 0 0 0 0 0 0 0 0 0 0 0 0 0 0 0 0 0 0 0 0 0 0 0 0 0 0 0 0 0 0 0 0 0 0 0 0
0 0 0 0 0 0 0 0 0 0 0 0 0 0 0 0 0 0 0 0 0 0 0 0 0 0 0 0 0 0 0 0 0 0 0 0 0 0 0 0 0 0 0
0 0 0 0 0 0 0 0 0 0 0 0 0 0 0 0 0 0 0 0 0 0 0 0 0 0 0 0 0 0 0 0 0 0 0 0 0 0 0 0 0 0 0
0 0 0 0 0 0 0 0 0 0 0 0 0 0 0 0 0 0 0 0 0 0 0 0 0 0 0 0 0 0 0 0 0 0 0 0 0 0 0 0 0 0 0
0 0 0 0 0 0 0 0 0 0 0 0 0 0 0 0 0 0 0 0 0 0 0 0 0 0 0 0 0 0 0 0 0 0 0 0 0 0 0 0 0 0 0
0 0 0 0 0 0 0 0 0 0 0 0 0 0 0 0 0 0 0 0 0 0 0 0 0 0 0 0 0 0 0 0 0 0 0 0 0 0 0 0 0 0 0
0 0 0 0 0 0 0 0 -0 0 0 0 0 0 0 0 0 0 0 0 0 0 0 0 0 0 0 0 0 0 0 0 0 0 0 0 0 0 0 0 0 0 0
0 0 0 0 0 -0 -0 -0 0 0 0 0 0 0 0 0 0 0 0 0 0 0 0 0 0 0 0 0 0 0 0 0 0 0 0 0 0 0 0 0 0 0 0
0 0 -0 -0 -0 -0 0 0 0 0 0 0 0 0 0 0 0 0 0 0 0 0 0 0 0 0 0 0 0 0 0 0 0 0 0 0 0 0 0 0 0 0 0
-0 -0 -0 -0 -0 -0 0 0 0 0 0 0 0 0 0 0 0 0 0 0 0 0 0 0 0 0 0 0 0 0 0 0 0 0 0 0 0 0 0 0 0 0 0
0 -0 -0 0 0 0 0 0 0 0 0 0 0 0 0 0 0 0 0 0 0 0 0 0 0 0 0 0 0 0 0 0 0 0 0 0 0 0 0 0 0 0 0
0 0 0 0 0 0 0 0 0 0 0 0 0 0 0 0 0 0 0 0 0 0 0 0 0 0 0 0 0 0 0 0 0 0 0 0 0 0 0 0 0 0 0
0 0 0 0 0 0 0 0 0 0 0 0 0 0 0 0 0 0 0 0 0 0 0 0 0 0 0 0 0 0 0 0 0 0 0 0 0 0 0 0 0 0 0
0 0 0 0 0 0 0 0 0 0 0 0 0 0 0 0 0 0 0 0 0 0 0 0 0 0 0 0 0 0 0 0 0 0 0 0 0 0 0 0 0 0 0
0 0 0 0 0 0 0 0 0 0 0 0 0 0 0 0 0 0 0 0 0 0 0 0 0 0 0 0 0 0 0 0 0 0 0 0 0 0 0 0 0 0 0
0 0 0 0 0 0 0 0 0 0 0 0 0 0 0 0 0 0 0 0 0 0 0 0 0 0 0 0 0 0 0 0 0 0 0 0 0 0 0 0 0 0 0
0 0 0 0 0 0 0 0 0 0 0 0 0 0 0 0 0 0 0 0 0 0 0 0 0 0 0 0 0 0 0 0 0 0 0 0 0 0 0 0 0 0 0
0 0 0 0 0 0 0 0 0 0 0 0 0 0 0 0 0 0 0 0 0 0 0 0 0 0 0 0 0 0 0 0 0 0 0 0 0 0 0 0 0 0 0
Wind_Speed_500mb
68 65 58 55 50 56 57 67 65 58 55 58 54 47 43 37 31 27 21 18 14 11 10 6 3 2 2 3 6 10 14 15 15 9 3 7 11 14 11 19 21 26 32
65 69 61 59 54 57 57 63 64 60 60 56 52 47 45 37 31 26 21 18 14 10 8 6 4 1 4 8 12 15 17 19 19 17 10 6 12 13 25 15 22 36 35
72 72 70 67 60 61 60 57 58 61 61 61 56 53 47 37 32 24 21 18 14 12 11 7 3 1 6 12 17 18 19 19 18 17 11 8 6 23 14 24 28 36 28
67 72 71 70 63 62 55 52 55 61 66 58 54 48 43 39 31 27 24 20 18 16 13 8 1 7 12 16 17 17 18 17 16 15 14 11 13 11 14 19 27 32 25
79 68 68 72 72 64 60 54 55 59 60 57 53 47 45 41 37 32 27 26 24 19 12 5 5 10 13 16 16 16 18 20 19 16 12 13 13 14 19 29 43 28 29
67 64 63 76 74 71 64 61 61 57 61 58 52 54 52 43 37 36 35 31 23 15 10 6 9 13 14 12 14 20 22 23 23 21 17 15 14 16 17 26 37 39 34
86 74 71 74 73 69 66 67 61 62 58 52 49 51 46 40 40 38 32 26 22 15 4 4 9 12 11 18 19 19 21 20 19 19 19 19 20 22 25 29 34 40 41
81 79 83 80 74 68 63 59 56 58 45 52 52 47 43 40 36 34 32 27 13 5 4 16 12 15 15 17 18 18 20 20 19 19 19 19 20 21 26 30 37 44 32
74 89 92 86 72 58 51 52 51 51 50 47 45 42 39 37 36 34 21 14 4 10 16 14 15 13 15 16 17 19 19 18 18 17 18 20 22 24 26 30 34 38 34
73 79 74 67 59 49 49 45 45 46 49 47 43 40 42 42 32 19 5 10 16 14 16 13 13 14 15 17 17 17 17 17 17 18 19 20 22 24 27 29 33 37 41
69 68 61 56 55 61 60 60 56 55 54 52 52 47 44 32 12 5 22 24 12 14 15 14 13 16 17 17 17 16 17 17 18 19 20 22 24 25 28 31 34 39 45
59 52 48 47 46 45 47 47 48 48 50 48 53 38 20 13 23 23 14 14 14 17 16 15 17 18 19 19 18 19 18 18 21 23 24 25 27 29 31 36 39 41 45
49 45 42 43 44 46 49 53 56 49 50 41 35 34 32 27 25 15 16 17 17 19 19 20 20 22 22 22 21 20 19 21 23 24 26 29 31 33 35 38 42 46 49
45 43 43 46 49 52 54 54 60 63 58 49 36 27 28 29 20 17 22 21 21 24 24 23 23 26 25 24 23 23 23 24 26 29 31 32 33 35 37 40 45 50 54
42 44 49 52 57 61 60 61 58 53 46 41 37 30 29 24 22 25 26 26 29 29 26 27 28 29 29 29 26 26 27 29 31 34 34 35 36 39 40 43 47 50 53
44 49 56 66 69 68 64 58 54 49 43 37 35 33 28 27 29 30 31 34 33 31 30 32 33 33 34 33 32 31 31 34 35 36 37 37 37 37 39 41 43 47 50
47 58 67 67 65 61 54 49 41 40 39 36 35 31 32 33 33 35 37 36 35 35 36 36 37 38 41 41 38 36 36 37 38 40 39 39 39 41 38 40 40 44 45
49 60 62 61 57 50 44 37 37 36 36 37 36 39 37 37 40 41 40 39 39 39 40 40 41 44 46 47 45 44 42 42 43 43 41 40 40 40 43 42 42 44 46
41 50 49 44 42 40 39 38 39 42 45 44 42 41 41 43 44 44 40 41 42 44 43 44 47 51 52 52 52 51 49 47 48 48 45 40 40 40 43 45 43 44 47
26 36 40 39 38 41 40 41 42 45 46 41 43 46 46 46 46 42 43 44 47 46 47 49 53 57 57 56 58 55 54 55 53 52 47 42 41 43 44 45 44 46 50
24 26 30 32 32 35 38 40 41 45 42 44 45 45 45 45 44 45 48 48 48 50 53 56 57 59 59 58 61 62 62 60 56 54 49 43 44 45 43 45 45 46 54
18 21 23 27 29 30 31 32 34 33 36 38 40 41 42 44 47 48 48 48 51 56 58 60 61 62 61 60 63 64 64 61 62 57 50 46 46 45 42 45 45 50 50
14 11 9 8 9 11 14 16 19 25 29 32 35 39 41 43 44 47 48 53 57 62 63 66 67 64 61 60 64 63 65 64 66 58 53 49 48 44 44 45 46 49 49
20 17 13 8 4 2 6 10 13 18 23 27 31 35 40 43 47 51 55 60 64 68 69 70 72 68 65 63 64 67 67 65 63 60 57 52 49 47 47 46 47 46 49
13 10 6 5 7 10 14 17 23 28 31 35 39 42 46 50 55 60 64 69 71 73 74 75 75 74 73 67 64 64 65 63 61 61 60 59 53 49 48 46 43 46 50
9 10 11 13 16 20 20 27 32 35 38 40 41 43 48 54 61 65 70 71 75 75 76 75 78 76 74 70 66 66 67 65 60 67 67 63 53 50 48 45 43 47 49
Wind_Direction_500mb
188 197 196 197 196 191 188 189 189 191 189 187 184 189 193 199 207 213 223 230 236 248 262 253 212 224 267 322 342 335 328 329 339 17 166 213 253 249 307 319 321 324 332
186 193 193 193 195 192 191 189 193 193 192 186 189 196 200 201 213 224 222 223 230 237 224 197 194 198 357 343 335 338 340 345 352 355 351 200 242 246 301 313 330 336 337
182 186 186 190 191 197 194 195 196 194 190 190 195 199 203 209 219 216 214 208 202 194 182 182 178 305 335 335 340 345 355 0 1 359 2 319 280 307 266 305 343 349 353
179 184 186 190 193 195 195 197 197 192 193 198 205 207 214 217 219 214 205 197 183 181 176 170 154 349 350 350 347 356 2 8 1 355 349 337 310 319 312 314 340 0 350
187 192 192 194 191 189 193 192 192 192 196 203 208 212 212 219 213 204 194 188 177 169 152 111 32 3 353 348 353 354 358 356 360 9 4 344 333 328 315 318 330 360 349
178 189 193 190 188 188 192 196 195 197 204 209 214 218 217 211 209 195 187 176 160 141 125 77 8 353 349 355 3 1 356 356 357 360 1 1 358 340 337 329 334 338 350
181 177 183 181 180 183 188 195 198 195 212 209 213 206 206 210 198 187 174 154 146 137 96 19 4 341 352 357 350 349 354 357 358 359 358 356 349 348 344 340 339 337 339
174 177 185 180 180 179 184 188 201 205 206 219 207 208 202 192 179 163 156 148 136 141 50 324 321 341 339 335 339 342 348 351 353 356 355 353 347 343 341 340 339 336 330
169 175 177 183 184 184 184 195 199 210 206 203 204 197 189 174 160 148 146 156 156 279 305 309 320 311 318 321 333 341 345 346 346 346 348 345 341 340 338 334 335 337 333
168 174 176 176 183 191 201 200 201 201 201 200 192 172 159 152 149 145 199 265 296 285 303 299 290 299 302 314 324 330 333 334 336 339 336 334 332 331 330 330 330 330 329
170 174 175 179 183 186 190 193 194 191 189 176 172 158 152 152 159 284 290 273 272 282 269 267 275 283 297 310 314 316 322 324 326 327 327 324 323 322 320 322 325 325 325
164 170 176 180 183 187 189 191 184 173 163 157 152 150 153 168 239 247 226 254 260 255 259 264 273 284 295 299 300 304 311 313 317 319 318 317 317 317 320 322 321 321 325
162 171 178 182 180 171 166 157 154 155 144 161 165 182 223 238 246 228 259 257 251 258 260 265 275 283 287 285 289 295 300 307 312 311 311 312 312 314 315 318 321 325 325
169 175 178 177 168 160 158 159 157 165 176 185 200 237 240 242 227 258 256 259 258 257 260 267 273 275 276 280 286 289 299 304 306 305 305 303 305 308 314 320 321 322 323
178 182 178 170 164 163 165 170 175 179 194 217 234 241 230 226 249 257 263 258 257 260 266 268 271 274 279 280 282 288 293 296 297 295 296 297 302 311 317 319 317 318 320
183 180 175 171 174 174 178 182 193 206 225 232 238 222 225 249 259 260 261 258 260 265 268 270 274 277 277 277 280 282 283 285 287 289 291 295 303 306 309 311 314 317 322
188 182 181 180 182 185 192 202 219 231 234 225 215 227 246 258 262 263 262 264 267 269 270 273 277 279 277 276 276 277 277 278 282 282 285 290 297 298 300 307 310 312 318
190 188 188 190 192 199 212 225 236 229 219 220 231 244 257 261 262 266 268 268 269 271 273 277 278 277 277 276 276 276 276 276 277 277 280 286 290 293 300 303 308 314 316
197 196 196 198 206 221 230 232 235 229 231 237 248 260 265 262 264 268 271 271 272 272 277 280 281 282 279 275 274 274 273 272 273 274 275 280 286 290 293 298 306 311 311
200 206 213 220 233 240 235 239 246 245 249 258 267 266 261 263 267 272 273 272 271 275 279 282 283 280 278 275 274 272 271 271 270 271 272 278 284 285 288 295 303 306 306
197 207 218 228 237 241 246 253 252 253 259 263 263 261 263 267 273 274 272 272 275 278 280 282 282 281 280 276 274 273 270 270 268 268 269 273 275 278 284 290 300 302 305
178 196 210 222 231 238 245 250 256 262 263 262 261 264 270 272 271 270 271 273 275 278 283 285 284 284 281 278 273 271 271 270 267 268 267 267 267 272 279 286 292 294 304
126 136 153 187 215 231 241 250 253 255 259 262 266 267 268 271 273 274 275 277 281 283 285 284 285 285 285 281 277 274 270 268 268 267 262 261 264 268 273 279 285 293 299
97 96 96 100 84 320 291 282 278 276 275 277 278 277 277 278 279 280 282 283 285 286 285 286 286 287 285 280 276 273 271 267 262 262 260 260 263 267 271 274 280 291 297
94 89 70 18 339 317 308 303 292 290 289 286 285 285 286 285 284 284 286 285 285 285 286 286 285 284 283 285 279 273 268 264 260 257 255 257 262 265 268 273 282 289 293
35 6 347 330 318 310 305 294 292 292 293 294 293 291 287 284 283 284 285 285 287 287 286 285 285 285 285 283 279 275 269 261 250 248 250 255 257 261 265 272 280 288 294
Wind_Speed_850mb
68 65 58 55 50 56 57 67 65 58 55 58 54 47 43 37 31 27 21 18 14 11 10 6 3 2 2 3 6 10 14 15 15 9 3 7 11 14 11 19 21 26 32
65 69 61 59 54 57 57 63 64 60 60 56 52 47 45 37 31 26 21 18 14 10 8 6 4 1 4 8 12 15 17 19 19 17 10 6 12 13 25 15 22 36 35
72 72 70 67 60 61 60 57 58 61 61 61 56 53 47 37 32 24 21 18 14 12 11 7 3 1 6 12 17 18 19 19 18 17 11 8 6 23 14 24 28 36 28
67 72 71 70 63 62 55 52 55 61 66 58 54 48 43 39 31 27 24 20 18 16 13 8 1 7 12 16 17 17 18 17 16 15 14 11 13 11 14 19 27 32 25
79 68 68 72 72 64 60 54 55 59 60 57 53 47 45 41 37 32 27 26 24 19 12 5 5 10 13 16 16 16 18 20 19 16 12 13 13 14 19 29 43 28 29
67 64 63 76 74 71 64 61 61 57 61 58 52 54 52 43 37 36 35 31 23 15 10 6 9 13 14 12 14 20 22 23 23 21 17 15 14 16 17 26 37 39 34
86 74 71 74 73 69 66 67 61 62 58 52 49 51 46 40 40 38 32 26 22 15 4 4 9 12 11 18 19 19 21 20 19 19 19 19 20 22 25 29 34 40 41
81 79 83 80 74 68 63 59 56 58 45 52 52 47 43 40 36 34 32 27 13 5 4 16 12 15 15 17 18 18 20 20 19 19 19 19 20 21 26 30 37 44 32
74 89 92 86 72 58 51 52 51 51 50 47 45 42 39 37 36 34 21 14 4 10 16 14 15 13 15 16 17 19 19 18 18 17 18 20 22 24 26 30 34 38 34
73 79 74 67 59 49 49 45 45 46 49 47 43 40 42 42 32 19 5 10 16 14 16 13 13 14 15 17 17 17 17 17 17 18 19 20 22 24 27 29 33 37 41
69 68 61 56 55 61 60 60 56 55 54 52 52 47 44 32 12 5 22 24 12 14 15 14 13 16 17 17 17 16 17 17 18 19 20 22 24 25 28 31 34 39 45
59 52 48 47 46 45 47 47 48 48 50 48 53 38 20 13 23 23 14 14 14 17 16 15 17 18 19 19 18 19 18 18 21 23 24 25 27 29 31 36 39 41 45
49 45 42 43 44 46 49 53 56 49 50 41 35 34 32 27 25 15 16 17 17 19 19 20 20 22 22 22 21 20 19 21 23 24 26 29 31 33 35 38 42 46 49
45 43 43 46 49 52 54 54 60 63 58 49 36 27 28 29 20 17 22 21 21 24 24 23 23 26 25 24 23 23 23 24 26 29 31 32 33 35 37 40 45 50 54
42 44 49 52 57 61 60 61 58 53 46 41 37 30 29 24 22 25 26 26 29 29 26 27 28 29 29 29 26 26 27 29 31 34 34 35 36 39 40 43 47 50 53
44 49 56 66 69 68 64 58 54 49 43 37 35 33 28 27 29 30 31 34 33 31 30 32 33 33 34 33 32 31 31 34 35 36 37 37 37 37 39 41 43 47 50
47 58 67 67 65 61 54 49 41 40 39 36 35 31 32 33 33 35 37 36 35 35 36 36 37 38 41 41 38 36 36 37 38 40 39 39 39 41 38 40 40 44 45
49 60 62 61 57 50 44 37 37 36 36 37 36 39 37 37 40 41 40 39 39 39 40 40 41 44 46 47 45 44 42 42 43 43 41 40 40 40 43 42 42 44 46
41 50 49 44 42 40 39 38 39 42 45 44 42 41 41 43 44 44 40 41 42 44 43 44 47 51 52 52 52 51 49 47 48 48 45 40 40 40 43 45 43 44 47
26 36 40 39 38 41 40 41 42 45 46 41 43 46 46 46 46 42 43 44 47 46 47 49 53 57 57 56 58 55 54 55 53 52 47 42 41 43 44 45 44 46 50
24 26 30 32 32 35 38 40 41 45 42 44 45 45 45 45 44 45 48 48 48 50 53 56 57 59 59 58 61 62 62 60 56 54 49 43 44 45 43 45 45 46 54
18 21 23 27 29 30 31 32 34 33 36 38 40 41 42 44 47 48 48 48 51 56 58 60 61 62 61 60 63 64 64 61 62 57 50 46 46 45 42 45 45 50 50
14 11 9 8 9 11 14 16 19 25 29 32 35 39 41 43 44 47 48 53 57 62 63 66 67 64 61 60 64 63 65 64 66 58 53 49 48 44 44 45 46 49 49
20 17 13 8 4 2 6 10 13 18 23 27 31 35 40 43 47 51 55 60 64 68 69 70 72 68 65 63 64 67 67 65 63 60 57 52 49 47 47 46 47 46 49
13 10 6 5 7 10 14 17 23 28 31 35 39 42 46 50 55 60 64 69 71 73 74 75 75 74 73 67 64 64 65 63 61 61 60 59 53 49 48 46 43 46 50
9 10 11 13 16 20 20 27 32 35 38 40 41 43 48 54 61 65 70 71 75 75 76 75 78 76 74 70 66 66 67 65 60 67 67 63 53 50 48 45 43 47 49
Wind_Direction_850mb
188 197 196 197 196 191 188 189 189 191 189 187 184 189 193 199 207 213 223 230 236 248 262 253 212 224 267 322 342 335 328 329 339 17 166 213 253 249 307 319 321 324 332
186 193 193 193 195 192 191 189 193 193 192 186 189 196 200 201 213 224 222 223 230 237 224 197 194 198 357 343 335 338 340 345 352 355 351 200 242 246 301 313 330 336 337
182 186 186 190 191 197 194 195 196 194 190 190 195 199 203 209 219 216 214 208 202 194 182 182 178 305 335 335 340 345 355 0 1 359 2 319 280 307 266 305 343 349 353
179 184 186 190 193 195 195 197 197 192 193 198 205 207 214 217 219 214 205 197 183 181 176 170 154 349 350 350 347 356 2 8 1 355 349 337 310 319 312 314 340 0 350
187 192 192 194 191 189 193 192 192 192 196 203 208 212 212 219 213 204 194 188 177 169 152 111 32 3 353 348 353 354 358 356 360 9 4 344 333 328 315 318 330 360 349
178 189 193 190 188 188 192 196 195 197 204 209 214 218 217 211 209 195 187 176 160 141 125 77 8 353 349 355 3 1 356 356 357 360 1 1 358 340 337 329 334 338 350
181 177 183 181 180 183 188 195 198 195 212 209 213 206 206 210 198 187 174 154 146 137 96 19 4 341 352 357 350 349 354 357 358 359 358 356 349 348 344 340 339 337 339
174 177 185 180 180 179 184 188 201 205 206 219 207 208 202 192 179 163 156 148 136 141 50 324 321 341 339 335 339 342 348 351 353 356 355 353 347 343 341 340 339 336 330
169 175 177 183 184 184 184 195 199 210 206 203 204 197 189 174 160 148 146 156 156 279 305 309 320 311 318 321 333 341 345 346 346 346 348 345 341 340 338 334 335 337 333
168 174 176 176 183 191 201 200 201 201 201 200 192 172 159 152 149 145 199 265 296 285 303 299 290 299 302 314 324 330 333 334 336 339 336 334 332 331 330 330 330 330 329
170 174 175 179 183 186 190 193 194 191 189 176 172 158 152 152 159 284 290 273 272 282 269 267 275 283 297 310 314 316 322 324 326 327 327 324 323 322 320 322 325 325 325
164 170 176 180 183 187 189 191 184 173 163 157 152 150 153 168 239 247 226 254 260 255 259 264 273 284 295 299 300 304 311 313 317 319 318 317 317 317 320 322 321 321 325
162 171 178 182 180 171 166 157 154 155 144 161 165 182 223 238 246 228 259 257 251 258 260 265 275 283 287 285 289 295 300 307 312 311 311 312 312 314 315 318 321 325 325
169 175 178 177 168 160 158 159 157 165 176 185 200 237 240 242 227 258 256 259 258 257 260 267 273 275 276 280 286 289 299 304 306 305 305 303 305 308 314 320 321 322 323
178 182 178 170 164 163 165 170 175 179 194 217 234 241 230 226 249 257 263 258 257 260 266 268 271 274 279 280 282 288 293 296 297 295 296 297 302 311 317 319 317 318 320
183 180 175 171 174 174 178 182 193 206 225 232 238 222 225 249 259 260 261 258 260 265 268 270 274 277 277 277 280 282 283 285 287 289 291 295 303 306 309 311 314 317 322
188 182 181 180 182 185 192 202 219 231 234 225 215 227 246 258 262 263 262 264 267 269 270 273 277 279 277 276 276 277 277 278 282 282 285 290 297 298 300 307 310 312 318
190 188 188 190 192 199 212 225 236 229 219 220 231 244 257 261 262 266 268 268 269 271 273 277 278 277 277 276 276 276 276 276 277 277 280 286 290 293 300 303 308 314 316
197 196 196 198 206 221 230 232 235 229 231 237 248 260 265 262 264 268 271 271 272 272 277 280 281 282 279 275 274 274 273 272 273 274 275 280 286 290 293 298 306 311 311
200 206 213 220 233 240 235 239 246 245 249 258 267 266 261 263 267 272 273 272 271 275 279 282 283 280 278 275 274 272 271 271 270 271 272 278 284 285 288 295 303 306 306
197 207 218 228 237 241 246 253 252 253 259 263 263 261 263 267 273 274 272 272 275 278 280 282 282 281 280 276 274 273 270 270 268 268 269 273 275 278 284 290 300 302 305
178 196 210 222 231 238 245 250 256 262 263 262 261 264 270 272 271 270 271 273 275 278 283 285 284 284 281 278 273 271 271 270 267 268 267 267 267 272 279 286 292 294 304
126 136 153 187 215 231 241 250 253 255 259 262 266 267 268 271 273 274 275 277 281 283 285 284 285 285 285 281 277 274 270 268 268 267 262 261 264 268 273 279 285 293 299
97 96 96 100 84 320 291 282 278 276 275 277 278 277 277 278 279 280 282 283 285 286 285 286 286 287 285 280 276 273 271 267 262 262 260 260 263 267 271 274 280 291 297
94 89 70 18 339 317 308 303 292 290 289 286 285 285 286 285 284 284 286 285 285 285 286 286 285 284 283 285 279 273 268 264 260 257 255 257 262 265 268 273 282 289 293
35 6 347 330 318 310 305 294 292 292 293 294 293 291 287 284 283 284 285 285 287 287 286 285 285 285 285 283 279 275 269 261 250 248 250 255 257 261 265 272 280 288 294